Weather History for KBWP - August, 2014

Change the Weather History Date:

Monday, August 11, 2014

  Actual Average (KFFM) Record (KFFM)
Temperature  
Mean Temperature 64 °F -  
Max Temperature 75 °F 80 °F 94 °F (1988)
Min Temperature 53 °F 55 °F 40 °F (1968)
Degree Days  
Heating Degree Days 1    
Growing Degree Days 14 (Base 50)    
Moisture  
Dew Point 47 °F    
Average Humidity 57    
Maximum Humidity 88    
Minimum Humidity 31    
Precipitation  
Precipitation 0.00 in - - ()
Sea Level Pressure  
Sea Level Pressure 30.15 in    
Wind  
Wind Speed 11 mph (North)    
Max Wind Speed 24 mph    
Max Gust Speed 33 mph    
Visibility 10 miles    
Events      
Averages and records for this station are not official NWS values.
T = Trace of Precipitation, MM = Missing Value Source: NWS Daily Summary

Daily Weather History Graph

Daily Weather History Graph

Search for Another Location

Airport or City:

Trip Planner

Search our weather history database for the weather conditions in past years. The results will help you decide how hot, cold, wet, or windy it might be!

Date:

Astronomy

Aug. 11, 2014 Rise Set
Actual Time 6:20 AM CDT 8:41 PM CDT
Civil Twilight 5:47 AM CDT 9:15 PM CDT
Nautical Twilight 5:05 AM CDT 9:56 PM CDT
Astronomical Twilight 4:18 AM CDT 10:43 PM CDT
Moon 9:02 PM CDT (8/11) 7:33 AM CDT (8/11)
Length of Visible Light 15h 28m
Length of Day
14h 21m
Full, 99% of the Moon is Illuminated
Aug 11
Full
Aug 17
Last Quarter
Aug 25
New
Sep 2
First Quarter
Sep 8
Full

Hourly Weather History & Observations

Time (CDT) Temp. Dew Point Humidity Pressure Visibility Wind Dir Wind Speed Gust Speed Precip Events Conditions
12:10 AM 59.0 °F 51.8 °F 77% 30.11 in 10.0 mi NNW 6.9 mph - N/A   Clear
12:30 AM 59.0 °F 51.8 °F 77% 30.11 in 10.0 mi North 8.1 mph - N/A   Clear
12:50 AM 60.8 °F 51.8 °F 72% 30.11 in 10.0 mi NNW 8.1 mph - N/A   Clear
1:10 AM 59.0 °F 51.8 °F 77% 30.11 in 10.0 mi NNW 8.1 mph - N/A   Clear
1:30 AM 59.0 °F 50.0 °F 72% 30.11 in 10.0 mi NNW 6.9 mph - N/A   Clear
1:50 AM 55.4 °F 50.0 °F 82% 30.11 in 10.0 mi NW 6.9 mph - N/A   Clear
2:10 AM 53.6 °F 50.0 °F 88% 30.11 in 10.0 mi NW 6.9 mph - N/A   Clear
2:30 AM 53.6 °F 50.0 °F 88% 30.11 in 10.0 mi NW 8.1 mph - N/A   Clear
2:50 AM 53.6 °F 50.0 °F 88% 30.12 in 10.0 mi NW 8.1 mph - N/A   Clear
3:10 AM 55.4 °F 50.0 °F 82% 30.11 in 10.0 mi NNW 8.1 mph - N/A   Clear
3:30 AM 55.4 °F 50.0 °F 82% 30.12 in 10.0 mi NNW 9.2 mph - N/A   Clear
3:50 AM 55.4 °F 50.0 °F 82% 30.13 in 10.0 mi NNW 10.4 mph - N/A   Clear
4:10 AM 55.4 °F 50.0 °F 82% 30.13 in 10.0 mi NNW 8.1 mph - N/A   Clear
4:30 AM 55.4 °F 50.0 °F 82% 30.13 in 10.0 mi NNW 10.4 mph - N/A   Clear
4:50 AM 55.4 °F 50.0 °F 82% 30.13 in 10.0 mi NNW 9.2 mph - N/A   Clear
5:10 AM 53.6 °F 50.0 °F 88% 30.13 in 10.0 mi NNW 9.2 mph - N/A   Scattered Clouds
5:30 AM 55.4 °F 50.0 °F 82% 30.13 in 10.0 mi NNW 8.1 mph - N/A   Scattered Clouds
5:50 AM 53.6 °F 50.0 °F 88% 30.13 in 10.0 mi NNW 8.1 mph - N/A   Clear
6:10 AM 53.6 °F 50.0 °F 88% 30.13 in 10.0 mi NNW 8.1 mph - N/A   Clear
6:30 AM 53.6 °F 50.0 °F 88% 30.14 in 10.0 mi NNW 8.1 mph - N/A   Clear
6:50 AM 53.6 °F 50.0 °F 88% 30.14 in 10.0 mi NNW 9.2 mph - N/A   Clear
7:10 AM 55.4 °F 50.0 °F 82% 30.15 in 10.0 mi NNW 9.2 mph - N/A   Clear
7:30 AM 55.4 °F 50.0 °F 82% 30.15 in 10.0 mi NNW 9.2 mph - N/A   Clear
7:50 AM 57.2 °F 50.0 °F 77% 30.16 in 10.0 mi NNW 9.2 mph - N/A   Clear
8:10 AM 59.0 °F 51.8 °F 77% 30.16 in 10.0 mi North 10.4 mph - N/A   Clear
8:30 AM 60.8 °F 51.8 °F 72% 30.17 in 10.0 mi North 10.4 mph - N/A   Clear
8:50 AM 62.6 °F 51.8 °F 68% 30.18 in 10.0 mi North 13.8 mph - N/A   Clear
9:30 AM 64.4 °F 51.8 °F 64% 30.18 in 10.0 mi North 12.7 mph 17.3 mph N/A   Clear
9:50 AM 66.2 °F 51.8 °F 60% 30.18 in 10.0 mi North 9.2 mph 20.7 mph N/A   Clear
10:10 AM 68.0 °F 51.8 °F 56% 30.18 in 10.0 mi North 10.4 mph - N/A   Clear
10:30 AM 68.0 °F 50.0 °F 52% 30.19 in 10.0 mi NNE 13.8 mph - N/A   Clear
10:50 AM 69.8 °F 50.0 °F 49% 30.19 in 10.0 mi North 13.8 mph 21.9 mph N/A   Clear
11:10 AM 69.8 °F 48.2 °F 46% 30.19 in 10.0 mi North 13.8 mph 20.7 mph N/A   Clear
11:30 AM 71.6 °F 46.4 °F 41% 30.19 in 10.0 mi North 15.0 mph 20.7 mph N/A   Clear
11:50 AM 71.6 °F 46.4 °F 41% 30.19 in 10.0 mi North 16.1 mph 21.9 mph N/A   Clear
12:10 PM 71.6 °F 44.6 °F 38% 30.18 in 10.0 mi North 18.4 mph 23.0 mph N/A   Clear
12:30 PM 71.6 °F 42.8 °F 35% 30.18 in 10.0 mi North 19.6 mph 24.2 mph N/A   Clear
12:50 PM 71.6 °F 42.8 °F 35% 30.18 in 10.0 mi North 19.6 mph 29.9 mph N/A   Clear
1:10 PM 73.4 °F 44.6 °F 36% 30.18 in 10.0 mi North 20.7 mph 28.8 mph N/A   Clear
1:30 PM 73.4 °F 44.6 °F 36% 30.18 in 10.0 mi North 24.2 mph 31.1 mph N/A   Scattered Clouds
1:50 PM 73.4 °F 44.6 °F 36% 30.18 in 10.0 mi North 17.3 mph 33.4 mph N/A   Scattered Clouds
2:10 PM 73.4 °F 44.6 °F 36% 30.17 in 10.0 mi North 21.9 mph 28.8 mph N/A   Scattered Clouds
2:30 PM 73.4 °F 42.8 °F 33% 30.17 in 10.0 mi North 13.8 mph 29.9 mph N/A   Scattered Clouds
2:50 PM 73.4 °F 42.8 °F 33% 30.16 in 10.0 mi North 20.7 mph 26.5 mph N/A   Scattered Clouds
3:10 PM 75.2 °F 42.8 °F 31% 30.16 in 10.0 mi North 19.6 mph 27.6 mph N/A   Mostly Cloudy
3:30 PM 73.4 °F 42.8 °F 33% 30.16 in 10.0 mi North 19.6 mph 26.5 mph N/A   Scattered Clouds
3:50 PM 73.4 °F 42.8 °F 33% 30.16 in 10.0 mi North 15.0 mph 28.8 mph N/A   Scattered Clouds
4:10 PM 75.2 °F 42.8 °F 31% 30.15 in 10.0 mi North 16.1 mph 21.9 mph N/A   Scattered Clouds
4:30 PM 73.4 °F 41.0 °F 31% 30.15 in 10.0 mi North 16.1 mph 23.0 mph N/A   Scattered Clouds
4:50 PM 73.4 °F 41.0 °F 31% 30.16 in 10.0 mi NNW 18.4 mph 25.3 mph N/A   Scattered Clouds
5:10 PM 73.4 °F 41.0 °F 31% 30.15 in 10.0 mi NNE 17.3 mph 21.9 mph N/A   Clear
5:30 PM 73.4 °F 41.0 °F 31% 30.15 in 10.0 mi North 12.7 mph 18.4 mph N/A   Clear
6:10 PM 73.4 °F 41.0 °F 31% 30.14 in 10.0 mi North 13.8 mph 21.9 mph N/A   Scattered Clouds
6:30 PM 73.4 °F 41.0 °F 31% 30.14 in 10.0 mi North 13.8 mph 20.7 mph N/A   Clear
6:50 PM 71.6 °F 42.8 °F 35% 30.14 in 10.0 mi NNE 13.8 mph - N/A   Clear
7:10 PM 71.6 °F 42.8 °F 35% 30.14 in 10.0 mi North 8.1 mph - N/A   Clear
7:30 PM 71.6 °F 42.8 °F 35% 30.14 in 10.0 mi North 9.2 mph - N/A   Clear
7:50 PM 69.8 °F 42.8 °F 38% 30.14 in 10.0 mi North 10.4 mph 16.1 mph N/A   Clear
8:10 PM 69.8 °F 42.8 °F 38% 30.14 in 10.0 mi North 6.9 mph 17.3 mph N/A   Clear
8:30 PM 66.2 °F 42.8 °F 43% 30.14 in 10.0 mi North 8.1 mph - N/A   Clear
8:50 PM 64.4 °F 44.6 °F 49% 30.14 in 10.0 mi North 5.8 mph - N/A   Clear